Weather History for Franklin, NC

Change the Weather History Date:

Monday, July 8, 2013

  Actual Average (KTOC) Record (KTOC)
Temperature  
Mean Temperature 74 °F -  
Max Temperature 84 °F 89 °F 93 °F (2014)
Min Temperature 64 °F 66 °F 66 °F (2014)
Cooling Degree Days 9    
Growing Degree Days 24 (Base 50)    
Moisture  
Dew Point 64 °F    
Average Humidity 78    
Maximum Humidity 99    
Minimum Humidity 47    
Precipitation  
Precipitation 0.01 in - - ()
Sea Level Pressure  
Sea Level Pressure 30.23 in    
Wind  
Wind Speed 1 mph (West)    
Max Wind Speed 8 mph    
Max Gust Speed -    
Visibility 10 miles    
Events Rain    
Averages and records for this station are not official NWS values.
T = Trace of Precipitation, MM = Missing Value Source: NWS Daily Summary

Daily Weather History Graph

Daily Weather History Graph

Search for Another Location

Airport:

Trip Planner

Search our weather history database for the weather conditions in past years. The results will help you decide how hot, cold, wet, or windy it might be!

Date:

Astronomy

Jul. 08, 2013 Rise Set
Actual Time 6:26 AM EDT 8:51 PM EDT
Civil Twilight 5:56 AM EDT 9:20 PM EDT
Nautical Twilight 5:20 AM EDT 9:56 PM EDT
Astronomical Twilight 4:40 AM EDT 10:36 PM EDT
Moon 6:51 AM EDT (7/8) 8:57 PM EDT (7/8)
Length of Visible Light 15h 23m
Length of Day
14h 24m
New Moon, 0% of the Moon is Illuminated
Jul 8
New Moon
Jul 15
First Quarter
Jul 22
Full
Jul 29
Last Quarter
Aug 6
New

Hourly Weather History & Observations

Time (EDT) Temp. Heat Index Dew Point Humidity Pressure Visibility Wind Dir Wind Speed Gust Speed Precip Events Conditions
12:15 AM 66.2 °F - 65.3 °F 97% 30.23 in 10.0 mi Calm Calm - N/A   Overcast
12:35 AM 66.2 °F - 65.3 °F 97% 30.24 in 10.0 mi Calm Calm - N/A   Overcast
12:55 AM 65.7 °F - 65.1 °F 98% 30.24 in 10.0 mi Calm Calm - N/A   Mostly Cloudy
1:15 AM 65.7 °F - 64.8 °F 97% 30.23 in 10.0 mi Calm Calm - N/A   Scattered Clouds
1:35 AM 65.5 °F - 64.6 °F 97% 30.24 in 7.0 mi Calm Calm - N/A   Mostly Cloudy
1:55 AM 65.3 °F - 64.4 °F 97% 30.23 in 7.0 mi Calm Calm - N/A   Overcast
2:15 AM 65.5 °F - 64.6 °F 97% 30.23 in 10.0 mi Calm Calm - N/A   Overcast
2:35 AM 65.5 °F - 64.6 °F 97% 30.23 in 7.0 mi Calm Calm - N/A   Overcast
2:55 AM 65.3 °F - 64.4 °F 97% 30.23 in 7.0 mi Calm Calm - N/A   Overcast
3:15 AM 65.3 °F - 64.4 °F 97% 30.23 in 5.0 mi Calm Calm - N/A   Overcast
3:35 AM 65.3 °F - 64.0 °F 96% 30.23 in 3.0 mi Calm Calm - N/A   Overcast
3:55 AM 65.3 °F - 64.0 °F 96% 30.22 in 10.0 mi Calm Calm - N/A   Overcast
4:15 AM 65.3 °F - 64.2 °F 96% 30.22 in 10.0 mi Calm Calm - N/A   Overcast
4:35 AM 65.3 °F - 64.0 °F 96% 30.22 in 10.0 mi Calm Calm - N/A   Overcast
4:55 AM 65.3 °F - 64.4 °F 97% 30.22 in 10.0 mi Calm Calm - N/A   Overcast
5:15 AM 65.3 °F - 64.4 °F 97% 30.23 in 10.0 mi Calm Calm - N/A   Overcast
5:35 AM 65.1 °F - 64.4 °F 98% 30.23 in 10.0 mi Calm Calm - N/A   Overcast
5:55 AM 65.3 °F - 64.4 °F 97% 30.23 in 10.0 mi Calm Calm - N/A   Overcast
6:15 AM 64.9 °F - 64.4 °F 98% 30.24 in 10.0 mi Calm Calm - N/A   Overcast
6:55 AM 64.6 °F - 64.4 °F 99% 30.24 in 10.0 mi Calm Calm - 0.01 in   Overcast
7:15 AM 64.9 °F - 64.4 °F 98% 30.25 in 10.0 mi Calm Calm - N/A   Overcast
7:35 AM 65.3 °F - 64.6 °F 98% 30.25 in 10.0 mi Calm Calm - N/A   Overcast
7:55 AM 65.5 °F - 65.3 °F 99% 30.25 in 10.0 mi Calm Calm - N/A   Overcast
8:15 AM 66.0 °F - 65.8 °F 99% 30.25 in 10.0 mi Calm Calm - N/A   Overcast
8:35 AM 66.6 °F - 66.4 °F 99% 30.25 in 10.0 mi Calm Calm - N/A   Overcast
8:55 AM 67.8 °F - 66.9 °F 97% 30.25 in 10.0 mi Calm Calm - N/A   Overcast
9:15 AM 69.8 °F - 64.8 °F 84% 30.25 in 10.0 mi Calm Calm - N/A   Overcast
9:35 AM 71.1 °F - 64.2 °F 79% 30.26 in 10.0 mi Calm Calm - N/A   Mostly Cloudy
9:55 AM 72.1 °F - 64.2 °F 76% 30.26 in 10.0 mi Calm Calm - N/A   Scattered Clouds
10:15 AM 73.2 °F - 64.6 °F 74% 30.26 in 10.0 mi West 3.5 mph - N/A   Scattered Clouds
10:35 AM 75.0 °F - 64.2 °F 69% 30.26 in 10.0 mi Calm Calm - N/A   Scattered Clouds
10:55 AM 75.7 °F - 63.9 °F 66% 30.26 in 10.0 mi Calm Calm - N/A   Scattered Clouds
11:15 AM 77.0 °F - 63.5 °F 63% 30.26 in 10.0 mi NE 3.5 mph - N/A   Scattered Clouds
11:35 AM 76.8 °F - 62.4 °F 61% 30.26 in 10.0 mi Calm Calm - N/A   Mostly Cloudy
11:55 AM 77.2 °F - 62.6 °F 61% 30.26 in 10.0 mi Calm Calm - N/A   Mostly Cloudy
12:15 PM 77.9 °F - 62.1 °F 58% 30.26 in 10.0 mi Calm Calm - N/A   Mostly Cloudy
12:35 PM 78.8 °F - 61.5 °F 55% 30.25 in 10.0 mi Calm Calm - N/A   Overcast
12:55 PM 79.5 °F - 62.6 °F 56% 30.25 in 10.0 mi SW 3.5 mph - N/A   Overcast
1:15 PM 79.2 °F - 61.5 °F 55% 30.24 in 10.0 mi Calm Calm - N/A   Mostly Cloudy
1:35 PM 80.6 °F 81.6 °F 61.3 °F 52% 30.24 in 10.0 mi Calm Calm - N/A   Mostly Cloudy
1:55 PM 81.3 °F 82.2 °F 61.3 °F 51% 30.23 in 10.0 mi Calm Calm - N/A   Mostly Cloudy
2:15 PM 82.8 °F 83.4 °F 61.7 °F 49% 30.23 in 10.0 mi West 6.9 mph - N/A   Mostly Cloudy
2:35 PM 81.9 °F 82.8 °F 62.2 °F 51% 30.22 in 10.0 mi West 6.9 mph - N/A   Overcast
2:55 PM 79.5 °F - 65.5 °F 62% 30.22 in 10.0 mi WNW 8.1 mph - N/A   Overcast
3:15 PM 81.3 °F 83.2 °F 65.5 °F 58% 30.21 in 10.0 mi West 5.8 mph - N/A   Mostly Cloudy
3:35 PM 82.9 °F 84.2 °F 63.9 °F 52% 30.21 in 10.0 mi West 4.6 mph - N/A   Scattered Clouds
3:55 PM 82.4 °F 84.1 °F 64.9 °F 55% 30.20 in 10.0 mi West 3.5 mph - N/A   Scattered Clouds
4:15 PM 83.1 °F 83.5 °F 61.0 °F 47% 30.19 in 10.0 mi Calm Calm - N/A   Scattered Clouds
4:35 PM 83.7 °F 84.7 °F 63.1 °F 50% 30.19 in 10.0 mi WSW 3.5 mph - N/A   Clear
4:55 PM 83.7 °F 84.7 °F 63.1 °F 50% 30.18 in 10.0 mi Calm Calm - N/A   Clear
5:15 PM 84.0 °F 84.7 °F 62.6 °F 48% 30.18 in 10.0 mi Calm Calm - N/A   Clear
5:35 PM 84.0 °F 84.9 °F 63.0 °F 49% 30.17 in 10.0 mi Calm Calm - N/A   Clear
5:55 PM 84.0 °F 85.2 °F 63.5 °F 50% 30.17 in 10.0 mi NW 3.5 mph - N/A   Clear
6:15 PM 82.4 °F 84.4 °F 65.7 °F 57% 30.17 in 10.0 mi WSW 3.5 mph - N/A   Mostly Cloudy
6:35 PM 79.0 °F - 66.6 °F 66% 30.18 in 10.0 mi SSE 5.8 mph - N/A   Overcast
6:55 PM 77.9 °F - 66.0 °F 67% 30.18 in 10.0 mi SSE 3.5 mph - N/A   Scattered Clouds
7:15 PM 77.5 °F - 65.8 °F 67% 30.18 in 10.0 mi Calm Calm - N/A   Mostly Cloudy
7:35 PM 76.5 °F - 66.4 °F 71% 30.18 in 10.0 mi Calm Calm - N/A   Mostly Cloudy
7:55 PM 75.4 °F - 66.9 °F 75% 30.19 in 10.0 mi Calm Calm - N/A   Mostly Cloudy
8:15 PM 75.4 °F - 66.7 °F 74% 30.20 in 10.0 mi Calm Calm - N/A   Overcast
8:35 PM 73.6 °F - 66.2 °F 78% 30.20 in 10.0 mi Calm Calm - N/A   Overcast
8:55 PM 73.6 °F - 65.3 °F 75% 30.21 in 10.0 mi Calm Calm - N/A   Overcast
9:15 PM 72.7 °F - 64.8 °F 76% 30.22 in 10.0 mi Calm Calm - N/A   Overcast
9:35 PM 72.1 °F - 64.8 °F 78% 30.23 in 10.0 mi Calm Calm - N/A   Mostly Cloudy
9:55 PM 71.6 °F - 65.8 °F 82% 30.24 in 10.0 mi Calm Calm - N/A   Overcast
10:15 PM 70.5 °F - 66.2 °F 86% 30.25 in 7.0 mi Calm Calm - N/A Rain Heavy Rain
10:35 PM 69.3 °F - 66.4 °F 91% 30.25 in 10.0 mi Calm Calm - N/A Rain Rain
10:55 PM 68.9 °F - 66.6 °F 92% 30.25 in 10.0 mi Calm Calm - N/A   Light Drizzle
11:15 PM 68.7 °F - 66.6 °F 93% 30.25 in 10.0 mi Calm Calm - N/A   Overcast
11:35 PM 68.0 °F - 66.6 °F 95% 30.25 in 10.0 mi Calm Calm - N/A   Overcast
11:55 PM 67.1 °F - 66.2 °F 97% 30.25 in 7.0 mi Calm Calm - N/A   Scattered Clouds